HAL89 KBOS-PHNL

Flight info

Callsign HAL89
Flight time N/A
Altitude 36000
Route HYLND7 HYLND HANAA Q816 HOCKE GRB GEP ABR J32 DPR/N0476F380 J32 OAK BEBOP R464 BARAZ/N0454F400 R464 BITTA INOYI1
Aircraft A332/H-SDE3GHIJ2J3J5M1RVWXY/LB2D1

Departure

Time 2026-04-28 21:08
Airport Boston Logan International Airport (KBOS)

Arrival

Time N/A
Airport Daniel K. Inouye International Airport (PHNL)
Time Latitude Longitude Altitude Speed Heading
2026-04-28 20:58 42.37165 -71.02364 27 ft 0 kts 131°
2026-04-28 21:00 42.37157 -71.02350 26 ft 5 kts 127°
2026-04-28 21:00 42.37141 -71.02300 27 ft 7 kts 103°
2026-04-28 21:00 42.37153 -71.02241 28 ft 7 kts 58°
2026-04-28 21:01 42.37190 -71.02195 28 ft 8 kts 38°
2026-04-28 21:01 42.37231 -71.02138 28 ft 9 kts 55°
2026-04-28 21:01 42.37237 -71.02066 28 ft 8 kts 94°
2026-04-28 21:01 42.37230 -71.01982 28 ft 10 kts 104°
2026-04-28 21:02 42.37193 -71.01893 28 ft 12 kts 125°
2026-04-28 21:02 42.37143 -71.01790 28 ft 14 kts 122°
2026-04-28 21:02 42.37083 -71.01671 28 ft 16 kts 127°
2026-04-28 21:02 42.36999 -71.01556 28 ft 18 kts 135°
2026-04-28 21:03 42.36910 -71.01430 28 ft 18 kts 135°
2026-04-28 21:03 42.36815 -71.01304 27 ft 20 kts 135°
2026-04-28 21:03 42.36695 -71.01248 28 ft 19 kts 195°
2026-04-28 21:03 42.36558 -71.01308 28 ft 21 kts 204°
2026-04-28 21:04 42.36419 -71.01393 28 ft 22 kts 200°
2026-04-28 21:04 42.36267 -71.01465 28 ft 24 kts 199°
2026-04-28 21:04 42.36111 -71.01540 28 ft 23 kts 199°
2026-04-28 21:04 42.35952 -71.01617 28 ft 25 kts 200°
2026-04-28 21:05 42.35825 -71.01638 28 ft 13 kts 141°
2026-04-28 21:05 42.35762 -71.01609 28 ft 8 kts 201°
2026-04-28 21:05 42.35697 -71.01644 28 ft 13 kts 201°
2026-04-28 21:05 42.35588 -71.01695 27 ft 20 kts 199°
2026-04-28 21:06 42.35455 -71.01693 28 ft 18 kts 129°
2026-04-28 21:06 42.35377 -71.01542 28 ft 21 kts 126°
2026-04-28 21:06 42.35296 -71.01388 28 ft 17 kts 125°
2026-04-28 21:06 42.35224 -71.01252 28 ft 18 kts 125°
2026-04-28 21:07 42.35222 -71.01128 28 ft 8 kts 23°
2026-04-28 21:07 42.35245 -71.01117 28 ft 2 kts 19°
2026-04-28 21:07 42.35400 -71.01042 28 ft 54 kts 20°
2026-04-28 21:07 42.35942 -71.00779 29 ft 111 kts 19°
2026-04-28 21:08 42.36838 -71.00348 32 ft 161 kts 19°
2026-04-28 21:08 42.37976 -70.99813 508 ft 173 kts 21°
2026-04-28 21:08 42.39074 -70.99261 1466 ft 167 kts 25°
2026-04-28 21:08 42.40209 -70.98610 1969 ft 189 kts 26°
2026-04-28 21:09 42.41530 -70.97891 2223 ft 219 kts 24°
2026-04-28 21:09 42.43011 -70.97093 2507 ft 244 kts 29°
2026-04-28 21:09 42.44226 -70.95504 3100 ft 243 kts 70°
2026-04-28 21:09 42.44550 -70.93275 3856 ft 248 kts 82°
2026-04-28 21:10 42.44935 -70.90963 4468 ft 253 kts 70°
2026-04-28 21:10 42.45578 -70.88729 5138 ft 259 kts 71°
2026-04-28 21:10 42.46028 -70.86348 5760 ft 263 kts 76°
2026-04-28 21:10 42.46835 -70.84124 6380 ft 267 kts 45°
2026-04-28 21:11 42.48354 -70.82640 6920 ft 274 kts 29°
2026-04-28 21:11 42.48976 -70.82170 7123 ft 276 kts 30°